Time,TemperatureF,DewpointF,PressureIn,WindDirection,WindDirectionDegrees,WindSpeedMPH,WindSpeedGustMPH,Humidity,HourlyPrecipIn,Conditions,Clouds,dailyrainin,SolarRadiationWatts/m^2,SoftwareType,DateUTC
2013-08-26 00:44:00,70.0,59.0,-100.00,SE,144,7.0,12.0,68,0.00,,,0.00,0.000000,,2013-08-26 04:44:00,
2013-08-26 00:53:00,70.0,59.0,-100.00,SE,144,7.0,12.0,68,0.00,,,0.00,0.000000,,2013-08-26 04:53:00,
2013-08-26 01:03:00,70.0,59.0,-100.00,SE,144,7.0,12.0,68,0.00,,,0.00,0.000000,,2013-08-26 05:03:00,
2013-08-26 01:44:00,70.0,58.0,-100.00,SSE,151,6.0,10.0,65,0.00,,,0.00,0.000000,,2013-08-26 05:44:00,
2013-08-26 01:52:00,70.0,58.0,-100.00,SSE,151,6.0,10.0,65,0.00,,,0.00,0.000000,,2013-08-26 05:52:00,
2013-08-26 02:02:00,70.0,58.0,-100.00,SSE,151,6.0,10.0,65,0.00,,,0.00,0.000000,,2013-08-26 06:02:00,
2013-08-26 02:42:00,69.0,57.0,-100.00,SSE,156,5.0,9.0,65,0.00,,,0.00,0.000000,,2013-08-26 06:42:00,
2013-08-26 02:52:00,69.0,57.0,-100.00,SSE,156,5.0,9.0,65,0.00,,,0.00,0.000000,,2013-08-26 06:52:00,
2013-08-26 03:02:00,69.0,57.0,-100.00,SSE,156,5.0,9.0,65,0.00,,,0.00,0.000000,,2013-08-26 07:02:00,
2013-08-26 03:42:00,69.0,57.0,-100.00,SSW,196,4.0,7.0,65,0.00,,,0.00,0.000000,,2013-08-26 07:42:00,
2013-08-26 03:52:00,69.0,57.0,-100.00,SSW,196,4.0,7.0,65,0.00,,,0.00,0.000000,,2013-08-26 07:52:00,
2013-08-26 04:02:00,69.0,57.0,-100.00,SSW,196,4.0,7.0,65,0.00,,,0.00,0.000000,,2013-08-26 08:02:00,
2013-08-26 05:43:00,67.0,57.0,-100.00,ESE,114,4.0,5.0,70,-99.99,,,0.00,0.000000,,2013-08-26 09:43:00,
2013-08-26 05:54:00,67.0,57.0,-100.00,ESE,114,4.0,5.0,70,-99.99,,,0.00,0.000000,,2013-08-26 09:54:00,
2013-08-26 06:03:00,67.0,57.0,-100.00,ESE,114,4.0,5.0,70,-99.99,,,0.00,0.000000,,2013-08-26 10:03:00,
2013-08-26 06:42:00,67.0,58.0,-100.00,ESE,110,4.0,5.0,73,0.00,,,0.00,0.000000,,2013-08-26 10:42:00,
2013-08-26 07:42:00,66.0,59.0,-100.00,SE,125,4.0,6.0,77,-99.99,,,-99.99,0.000000,,2013-08-26 11:42:00,
2013-08-26 07:52:00,66.0,59.0,-100.00,SE,125,4.0,6.0,77,-99.99,,,-99.99,0.000000,,2013-08-26 11:52:00,
2013-08-26 08:01:00,66.0,59.0,-100.00,SE,125,4.0,6.0,77,-99.99,,,-99.99,0.000000,,2013-08-26 12:01:00,
2013-08-26 09:52:00,69.0,59.0,-100.00,SE,138,3.0,4.0,71,-99.99,,,0.00,141.000000,,2013-08-26 13:52:00,
2013-08-26 10:02:00,69.0,59.0,-100.00,SE,138,3.0,4.0,71,-99.99,,,0.00,141.000000,,2013-08-26 14:02:00,
2013-08-26 10:42:00,72.0,60.0,-100.00,SSE,148,4.0,6.0,67,0.00,,,0.00,377.000000,,2013-08-26 14:42:00,
2013-08-26 10:52:00,72.0,60.0,-100.00,SSE,148,4.0,6.0,67,0.00,,,0.00,377.000000,,2013-08-26 14:52:00,
2013-08-26 11:01:00,72.0,60.0,-100.00,SSE,148,4.0,6.0,67,0.00,,,0.00,377.000000,,2013-08-26 15:01:00,
2013-08-26 11:05:00,75.0,62.0,-100.00,South,183,3.0,7.0,64,0.00,,,0.00,615.000000,,2013-08-26 15:05:00,
2013-08-26 11:59:00,75.0,62.0,-100.00,South,183,3.0,7.0,64,0.00,,,0.00,615.000000,,2013-08-26 15:59:00,
2013-08-26 12:05:00,77.0,63.0,-100.00,WNW,290,3.0,7.0,63,0.00,,,0.00,656.000000,,2013-08-26 16:05:00,
2013-08-26 12:48:00,77.0,63.0,-100.00,WNW,290,3.0,7.0,63,0.00,,,0.00,656.000000,,2013-08-26 16:48:00,
2013-08-26 12:59:00,77.0,63.0,-100.00,WNW,290,3.0,7.0,63,0.00,,,0.00,656.000000,,2013-08-26 16:59:00,
2013-08-26 13:43:00,80.0,62.0,-100.00,SSE,163,3.0,7.0,55,0.00,,,0.00,956.000000,,2013-08-26 17:43:00,
2013-08-26 13:53:00,80.0,62.0,-100.00,SSE,163,3.0,7.0,55,0.00,,,0.00,956.000000,,2013-08-26 17:53:00,
2013-08-26 14:01:00,80.0,62.0,-100.00,SSE,163,3.0,7.0,55,0.00,,,0.00,956.000000,,2013-08-26 18:01:00,
2013-08-26 14:42:00,78.0,62.0,-100.00,WNW,292,2.0,5.0,58,0.00,,,0.00,571.000000,,2013-08-26 18:42:00,
2013-08-26 14:52:00,78.0,62.0,-100.00,WNW,292,2.0,5.0,58,0.00,,,0.00,571.000000,,2013-08-26 18:52:00,
2013-08-26 15:02:00,78.0,62.0,-100.00,WNW,292,2.0,5.0,58,0.00,,,0.00,571.000000,,2013-08-26 19:02:00,
2013-08-26 15:42:00,80.0,64.0,-100.00,East,81,4.0,7.0,58,0.00,,,0.00,913.000000,,2013-08-26 19:42:00,
2013-08-26 15:52:00,80.0,64.0,-100.00,East,81,4.0,7.0,58,0.00,,,0.00,913.000000,,2013-08-26 19:52:00,
2013-08-26 16:02:00,80.0,64.0,-100.00,East,81,4.0,7.0,58,0.00,,,0.00,913.000000,,2013-08-26 20:02:00,
2013-08-26 16:43:00,77.0,61.0,-100.00,East,85,3.0,6.0,57,0.00,,,0.00,541.000000,,2013-08-26 20:43:00,
2013-08-26 16:52:00,77.0,61.0,-100.00,East,85,3.0,6.0,57,0.00,,,0.00,541.000000,,2013-08-26 20:52:00,
2013-08-26 17:02:00,77.0,61.0,-100.00,East,85,3.0,6.0,57,0.00,,,0.00,541.000000,,2013-08-26 21:02:00,
2013-08-26 17:05:00,80.0,63.0,-100.00,East,82,2.0,6.0,56,0.00,,,0.00,647.000000,,2013-08-26 21:05:00,
2013-08-26 17:44:00,80.0,63.0,-100.00,East,82,2.0,6.0,56,0.00,,,0.00,647.000000,,2013-08-26 21:44:00,
2013-08-26 17:55:00,80.0,63.0,-100.00,East,82,2.0,6.0,56,0.00,,,0.00,647.000000,,2013-08-26 21:55:00,
2013-08-26 19:42:00,81.0,62.0,-100.00,NNE,26,1.0,4.0,53,-99.99,,,0.00,314.000000,,2013-08-26 23:42:00,
2013-08-26 19:52:00,81.0,62.0,-100.00,NNE,26,1.0,4.0,53,-99.99,,,0.00,314.000000,,2013-08-26 23:52:00,
2013-08-26 20:01:00,81.0,62.0,-100.00,NNE,26,1.0,4.0,53,-99.99,,,0.00,314.000000,,2013-08-27 00:01:00,
2013-08-26 20:42:00,75.0,62.0,-100.00,NW,314,1.0,2.0,63,0.00,,,0.00,76.000000,,2013-08-27 00:42:00,
2013-08-26 20:52:00,75.0,62.0,-100.00,NW,314,1.0,2.0,63,0.00,,,0.00,76.000000,,2013-08-27 00:52:00,
2013-08-26 21:02:00,75.0,62.0,-100.00,NW,314,1.0,2.0,63,0.00,,,0.00,76.000000,,2013-08-27 01:02:00,
2013-08-26 21:42:00,73.0,60.0,-100.00,WNW,294,0.0,2.0,64,0.00,,,0.00,2.000000,,2013-08-27 01:42:00,
2013-08-26 21:52:00,73.0,60.0,-100.00,WNW,294,0.0,2.0,64,0.00,,,0.00,2.000000,,2013-08-27 01:52:00,
2013-08-26 22:02:00,73.0,60.0,-100.00,WNW,294,0.0,2.0,64,0.00,,,0.00,2.000000,,2013-08-27 02:02:00,
2013-08-26 22:43:00,72.0,60.0,-100.00,WNW,291,2.0,2.0,66,0.00,,,0.00,0.000000,,2013-08-27 02:43:00,
2013-08-26 22:52:00,72.0,60.0,-100.00,WNW,291,2.0,2.0,66,0.00,,,0.00,0.000000,,2013-08-27 02:52:00,
2013-08-26 23:02:00,72.0,60.0,-100.00,WNW,291,2.0,2.0,66,0.00,,,0.00,0.000000,,2013-08-27 03:02:00,